This is the latest recevied weather packets stored in our database for station/object N0QWM. If no packets are shown the sender has not sent any weather packets the latest 10 day(s).
| Time | Temp. | Humidity | Pressure | Rain* | Wind** | Luminosity | Snow |
|---|---|---|---|---|---|---|---|
| 1778258887 | 18.89° C | 66% | 1022 hPa | 0 mm | - | 212 W/m² | - |
| 1778258584 | 18.89° C | 67% | 1022.1 hPa | 0 mm | - | 220 W/m² | - |
| 1778258282 | 18.89° C | 63% | 1022 hPa | 0 mm | - | 223 W/m² | - |
| 1778257979 | 18.89° C | 65% | 1022.3 hPa | 0 mm | - | 257 W/m² | - |
| 1778257675 | 19.44° C | 68% | 1022.3 hPa | 0 mm | - | 256 W/m² | - |
| 1778257372 | 19.44° C | 65% | 1022.1 hPa | 0 mm | - | 245 W/m² | - |
| 1778257069 | 20° C | 64% | 1022.2 hPa | 0 mm | - | 324 W/m² | - |
| 1778256766 | 19.44° C | 65% | 1022.2 hPa | 0 mm | - | 505 W/m² | - |
| 1778256464 | 19.44° C | 64% | 1022.5 hPa | 0 mm | - | 382 W/m² | - |
| 1778256162 | 19.44° C | 67% | 1022.3 hPa | 0 mm | - | 428 W/m² | - |
| 1778255858 | 18.89° C | 67% | 1022.4 hPa | 0 mm | - | 501 W/m² | - |
| 1778255555 | 19.44° C | 65% | 1022.4 hPa | 0 mm | - | 475 W/m² | - |
| 1778255246 | 18.33° C | 67% | 1022.8 hPa | 0 mm | - | 375 W/m² | - |
| 1778254943 | 18.33° C | 66% | 1023 hPa | 0 mm | - | 499 W/m² | - |
| 1778254640 | 18.89° C | 68% | 1022.9 hPa | 0 mm | - | 237 W/m² | - |
| 1778254337 | 18.33° C | 69% | 1022.6 hPa | 0 mm | - | 524 W/m² | - |
| 1778254034 | 17.78° C | 70% | 1022.6 hPa | 0 mm | - | 344 W/m² | - |
| 1778253729 | 18.33° C | 73% | 1023.1 hPa | 0 mm | - | 229 W/m² | - |
| 1778253426 | 17.78° C | 71% | 1022.7 hPa | 0 mm | - | 242 W/m² | - |
| 1778253123 | 17.78° C | 71% | 1022.4 hPa | 0 mm | - | 387 W/m² | - |
| 1778252820 | 17.22° C | 72% | 1022.5 hPa | 0 mm | - | 458 W/m² | - |
| 1778252517 | 17.22° C | 69% | 1022.6 hPa | 0 mm | - | 329 W/m² | - |
| 1778252212 | 17.22° C | 71% | 1022.6 hPa | 0 mm | - | 178 W/m² | - |
| 1778251909 | 16.67° C | 73% | 1022.7 hPa | 0 mm | - | 258 W/m² | - |
| 1778251304 | 17.22° C | 70% | 1023 hPa | 0 mm | - | 161 W/m² | - |
* Rain latest hour (hover to see other rain measurements)
** Current wind speed in m/s (hover to see current wind gust speed)